Regional Weather Roundup
Issued by NWS Sioux Falls, SD

Home | Current Version | Previous Version | Graphics & Text | Print | Product List | Glossary On
Versions: 1 2 3 4 5 6 7 8 9 10 11 12 13 14 15 16 17 18 19 20 21 22 23 24 25 26 27 28 29 30 31 32 33 34 35 36 37 38 39 40 41 42 43 44 45 46 47 48 49 50
000
ASUS43 KFSD 190902
RWRFSD

WEATHER ROUNDUP FOR SE SOUTH DAKOTA/SW MINNESOTA/NW IOWA
NATIONAL WEATHER SERVICE SIOUX FALLS SD
400 AM CDT FRI SEP 19 2014

NOTE: "FAIR" INDICATES FEW OR NO CLOUDS BELOW 12,000 FEET WITH NO
SIGNIFICANT WEATHER AND OR OBSTRUCTIONS TO VISIBILITY.


SDZ038>040-050-052>070-191000-
SOUTHEAST SOUTH DAKOTA

CITY           SKY/WX    TMP DP  RH WIND       PRES   REMARKS
CHAMBERLAIN    PTCLDY    65  63  92 S8        29.73R
HURON          CLOUDY    63  57  81 S18G28    29.77R
MADISON        PTSUNNY   57  57 100 S18G25    29.83F
MITCHELL       CLOUDY    63  58  83 S16G24    29.79F
SIOUX FALLS    CLOUDY    62  57  83 S24G31    29.85F
WINNER         FAIR      68  63  84 S22G31    29.70F
YANKTON        CLOUDY    63  59  88 S14       29.85F
$$

MNZ071-072-080-081-089-090-097-098-191000-
SOUTHWEST MINNESOTA

CITY           SKY/WX    TMP DP  RH WIND       PRES   REMARKS
FAIRMONT       PTCLDY    57  48  72 S13       29.95S
JACKSON        PTCLDY    59  54  82 S15G24    29.93F
LUVERNE        MOCLDY    61  55  82 S16G24    29.88F
MARSHALL         N/A    N/A N/A N/A MISG      29.83F
MONTEVIDEO     CLOUDY    61  55  82 S12G17    29.85F
PIPESTONE      PTCLDY    59  55  88 S17       29.85F
REDWOOD FALLS  CLOUDY    61  55  81 S16       29.87F
TRACY          MOCLDY    62  57  85 S14G23    29.86F
WINDOM         MOCLDY    61  55  82 S17G23    29.90F
WORTHINGTON    CLOUDY    59  55  88 S15G28    29.91F
$$

IAZ001>003-012>014-020>022-031-032-NEZ013-014-SDZ071-191000-
NORTHWEST IOWA

CITY           SKY/WX    TMP DP  RH WIND       PRES   REMARKS
CHEROKEE       MOCLDY    58  58  99 S10       29.93F
DENISON        CLOUDY    59  59 100 S8G17     29.95F
ESTHERVILLE    PTCLDY    56  54  93 S15       29.94F
LE MARS          N/A     61  59  94 S15G23    29.91F
ORANGE CITY    CLOUDY    63  57  82 S14       29.90F
SHELDON        CLOUDY    59  57  94 S15G25    29.90F
SIOUX CITY     CLOUDY    60  59  96 SE7G16    29.91F
SPENCER        PTCLDY    58  55  90 S13       29.94F
STORM LAKE     CLEAR     57  57 100 S13       29.95F FOG
$$

ABBREVIATIONS USED IN REMARKS
   TC - TEMPERATURE IN CELSIUS
  WCI - WIND CHILL INDEX
   HX - HEAT INDEX
  VSB - VISIBILITY




USA.gov is the U.S. government's official web portal to all federal, state and local government web resources and services.